contact:dominique.lefevre@mio.osupytheas.fr, maurice.libes@osupytheas.fr, didier.mallarino@osupytheas.fr
Project:EMSO http://www.emso-fr.org/EMSO-France
Depth: 2436.0 m
Title:EMSO Ligure Ouest : Data MII capteur AQUADOPP
Date,Latitude,Longitude,X_East,Y_North,Z_Up,Amplitude_X,Amplitude_Y,Amplitude_Z,Batterie,SoundSpeed,Heading,Pitch,Roll,Pressure,TIS,Speed,Direction
, degrees North, degrees East, m.s-1, m.s-1,m.s-1, 1, 1, 1, Volt, m.s-1, degree, degree, degree, dbar, degree_C, m.s-1, degree
2020-10-16T00:04:03,42.805,6.029,0.039,-0.027,-0.002,105.0,108.0,102.0,13.4,1505.2,327.3,-0.7,1.8,2470.365,13.3,0.047,124.7
2020-10-16T00:07:03,42.805,6.029,0.04,-0.062,0.0,106.0,106.0,102.0,13.3,1505.3,326.5,-0.7,1.8,2470.338,13.31,0.073,147.2
2020-10-16T00:10:03,42.805,6.029,0.052,-0.046,0.04,105.0,107.0,102.0,13.4,1505.3,327.7,-0.7,1.8,2470.322,13.31,0.069,131.5
2020-10-16T00:13:03,42.805,6.029,0.039,-0.039,-0.021,107.0,108.0,104.0,13.4,1505.3,326.3,-0.7,1.8,2470.316,13.32,0.055,135.0
2020-10-16T00:16:03,42.805,6.029,0.037,-0.022,0.043,105.0,107.0,102.0,13.3,1505.3,327.2,-0.7,1.8,2470.301,13.32,0.043,120.7
2020-10-16T00:19:03,42.805,6.029,0.04,-0.028,0.006,105.0,106.0,102.0,13.4,1505.3,324.6,-0.7,1.8,2470.311,13.32,0.048,125.0
2020-10-16T00:22:03,42.805,6.029,0.025,-0.022,-0.015,106.0,107.0,103.0,13.4,1505.3,328.0,-0.7,1.8,2470.311,13.32,0.033,131.3
2020-10-16T00:25:03,42.805,6.029,0.039,-0.037,-0.014,108.0,106.0,103.0,13.3,1505.3,324.0,-0.7,1.8,2470.264,13.32,0.053,133.5
2020-10-16T00:28:03,42.805,6.029,0.037,-0.012,0.017,105.0,107.0,104.0,13.4,1505.3,324.0,-0.7,1.8,2470.292,13.32,0.038,108.0
2020-10-16T00:31:03,42.805,6.029,0.023,-0.038,-0.009,105.0,106.0,103.0,13.4,1505.3,327.9,-0.7,1.8,2470.294,13.32,0.044,148.8
2020-10-16T00:34:03,42.805,6.029,0.031,-0.061,0.01,104.0,106.0,103.0,13.4,1505.3,327.8,-0.7,1.8,2470.323,13.32,0.068,153.1
2020-10-16T00:37:03,42.805,6.029,0.04,-0.018,0.0,106.0,107.0,103.0,13.4,1505.3,323.5,-0.7,1.8,2470.281,13.32,0.043,114.2
2020-10-16T00:40:03,42.805,6.029,0.037,-0.046,-0.037,104.0,107.0,103.0,13.4,1505.3,324.4,-0.7,1.8,2470.303,13.32,0.059,141.2
2020-10-16T00:43:03,42.805,6.029,0.03,-0.046,0.008,105.0,107.0,103.0,13.4,1505.3,327.0,-0.7,1.9,2470.283,13.32,0.054,146.9
2020-10-16T00:46:03,42.805,6.029,0.045,-0.039,-0.001,106.0,107.0,103.0,13.4,1505.3,324.7,-0.7,1.8,2470.282,13.32,0.059,130.9
2020-10-16T00:49:03,42.805,6.029,0.027,-0.048,-0.002,106.0,106.0,103.0,13.4,1505.3,327.6,-0.7,1.9,2470.305,13.32,0.055,150.6
2020-10-16T00:52:03,42.805,6.029,0.042,-0.039,0.03,106.0,108.0,104.0,13.4,1505.3,328.1,-0.7,1.8,2470.305,13.32,0.057,132.9
2020-10-16T00:55:03,42.805,6.029,0.037,-0.059,0.001,105.0,107.0,102.0,13.3,1505.3,323.6,-0.7,1.8,2470.33,13.32,0.069,147.9
2020-10-16T00:58:03,42.805,6.029,0.03,-0.039,0.0,107.0,107.0,103.0,13.3,1505.3,323.8,-0.7,1.8,2470.267,13.32,0.049,142.4
2020-10-16T01:04:03,42.805,6.029,0.04,-0.05,-0.006,107.0,107.0,105.0,13.4,1505.2,327.1,-0.7,1.8,2470.33,13.3,0.064,141.3
2020-10-16T01:07:03,42.805,6.029,0.052,-0.057,-0.025,108.0,107.0,104.0,13.4,1505.3,324.7,-0.7,1.9,2470.335,13.31,0.077,137.6
2020-10-16T01:10:03,42.805,6.029,0.044,-0.048,0.008,105.0,104.0,104.0,13.3,1505.3,326.7,-0.7,1.8,2470.286,13.31,0.065,137.5
2020-10-16T01:16:03,42.805,6.029,0.037,-0.054,-0.003,107.0,107.0,104.0,13.4,1505.2,326.3,-0.7,1.8,2470.312,13.3,0.065,145.6
2020-10-16T01:19:03,42.805,6.029,0.039,-0.028,0.014,107.0,107.0,101.0,13.4,1505.3,326.0,-0.7,1.9,2470.301,13.31,0.048,125.7
2020-10-16T01:22:03,42.805,6.029,0.029,-0.029,0.015,107.0,107.0,103.0,13.3,1505.3,324.3,-0.7,1.8,2470.353,13.31,0.041,135.0
2020-10-16T01:25:03,42.805,6.029,0.046,-0.042,0.015,106.0,107.0,103.0,13.3,1505.3,328.4,-0.7,1.8,2470.334,13.32,0.062,132.4
2020-10-16T01:28:03,42.805,6.029,0.038,-0.041,0.051,107.0,107.0,103.0,13.3,1505.3,325.3,-0.7,1.8,2470.331,13.32,0.055,137.2
2020-10-16T01:31:03,42.805,6.029,0.016,-0.045,-0.002,106.0,106.0,102.0,13.4,1505.3,327.9,-0.7,1.8,2470.345,13.32,0.047,160.4
2020-10-16T01:34:03,42.805,6.029,0.043,-0.049,0.013,106.0,105.0,102.0,13.4,1505.3,326.0,-0.7,1.8,2470.314,13.32,0.065,138.7
2020-10-16T01:37:03,42.805,6.029,0.031,-0.039,0.0,106.0,107.0,104.0,13.3,1505.3,327.3,-0.7,1.8,2470.303,13.32,0.049,141.5
2020-10-16T01:40:03,42.805,6.029,0.055,-0.037,-0.006,105.0,107.0,102.0,13.3,1505.3,325.2,-0.7,1.9,2470.305,13.32,0.066,123.9
2020-10-16T01:43:03,42.805,6.029,0.029,-0.015,0.013,106.0,107.0,103.0,13.3,1505.3,328.0,-0.7,1.8,2470.297,13.32,0.032,117.4
2020-10-16T01:46:03,42.805,6.029,0.03,-0.04,0.001,107.0,107.0,102.0,13.4,1505.3,326.8,-0.7,1.8,2470.335,13.32,0.05,143.1
2020-10-16T01:49:03,42.805,6.029,0.064,-0.042,0.002,107.0,106.0,102.0,13.3,1505.3,327.4,-0.7,1.8,2470.268,13.32,0.076,123.3
2020-10-16T01:52:03,42.805,6.029,0.061,-0.052,0.013,106.0,107.0,102.0,13.4,1505.3,326.3,-0.7,1.8,2470.278,13.32,0.08,130.4
2020-10-16T01:55:03,42.805,6.029,0.053,-0.047,0.019,106.0,107.0,103.0,13.3,1505.3,326.8,-0.7,1.8,2470.311,13.32,0.07,131.6
2020-10-16T01:58:03,42.805,6.029,0.05,-0.052,0.009,107.0,106.0,102.0,13.4,1505.3,326.9,-0.7,1.9,2470.275,13.32,0.072,136.1
2020-10-16T02:04:03,42.805,6.029,0.05,-0.028,0.001,106.0,105.0,103.0,13.3,1505.2,326.9,-0.7,1.9,2470.345,13.3,0.057,119.3
2020-10-16T02:07:03,42.805,6.029,0.04,-0.043,0.009,106.0,106.0,102.0,13.4,1505.3,327.5,-0.7,1.8,2470.333,13.31,0.058,137.1
2020-10-16T02:10:03,42.805,6.029,0.056,-0.039,-0.01,107.0,106.0,103.0,13.4,1505.3,323.3,-0.7,1.8,2470.37,13.31,0.068,124.9
2020-10-16T02:13:03,42.805,6.029,0.056,-0.044,0.012,106.0,107.0,102.0,13.4,1505.3,324.9,-0.7,1.8,2470.311,13.32,0.071,128.2
2020-10-16T02:16:03,42.805,6.029,0.04,-0.035,0.005,108.0,106.0,102.0,13.4,1505.3,323.0,-0.7,1.8,2470.376,13.32,0.053,131.2
2020-10-16T02:19:03,42.805,6.029,0.04,-0.063,-0.016,106.0,107.0,103.0,13.4,1505.3,324.1,-0.7,1.8,2470.297,13.32,0.074,147.6
2020-10-16T02:22:03,42.805,6.029,0.025,-0.05,0.01,106.0,106.0,103.0,13.4,1505.3,324.9,-0.7,1.8,2470.321,13.32,0.055,153.4
2020-10-16T02:25:03,42.805,6.029,0.055,-0.033,0.014,106.0,106.0,104.0,13.4,1505.3,325.7,-0.7,1.8,2470.312,13.32,0.064,121.0
2020-10-16T02:28:03,42.805,6.029,0.048,-0.017,0.01,106.0,106.0,102.0,13.3,1505.3,327.9,-0.7,1.8,2470.273,13.32,0.05,109.5
2020-10-16T02:31:03,42.805,6.029,0.059,-0.03,-0.008,106.0,107.0,103.0,13.4,1505.3,323.6,-0.7,1.8,2470.298,13.32,0.066,116.9
2020-10-16T02:34:03,42.805,6.029,0.048,-0.026,0.035,106.0,107.0,104.0,13.3,1505.3,326.3,-0.7,1.8,2470.313,13.32,0.054,118.4
2020-10-16T02:37:03,42.805,6.029,0.044,-0.041,0.002,107.0,107.0,102.0,13.3,1505.3,324.7,-0.7,1.8,2470.335,13.32,0.06,133.0
2020-10-16T02:40:03,42.805,6.029,0.054,-0.043,0.016,107.0,105.0,105.0,13.4,1505.3,327.0,-0.8,1.8,2470.274,13.32,0.069,128.5
2020-10-16T02:43:03,42.805,6.029,0.051,-0.028,0.01,106.0,107.0,102.0,13.4,1505.3,325.5,-0.7,1.8,2470.317,13.32,0.058,118.8
2020-10-16T02:46:03,42.805,6.029,0.063,-0.046,-0.027,106.0,106.0,103.0,13.4,1505.3,323.6,-0.7,1.8,2470.371,13.32,0.078,126.1
2020-10-16T02:49:03,42.805,6.029,0.053,-0.039,-0.004,108.0,106.0,104.0,13.4,1505.3,326.3,-0.7,1.9,2470.343,13.32,0.065,126.3
2020-10-16T02:52:03,42.805,6.029,0.075,-0.034,0.003,108.0,107.0,102.0,13.4,1505.3,325.6,-0.8,1.8,2470.306,13.32,0.082,114.4
2020-10-16T02:55:03,42.805,6.029,0.084,-0.036,0.0,106.0,108.0,103.0,13.3,1505.3,325.5,-0.7,1.8,2470.278,13.32,0.091,113.2
2020-10-16T02:58:03,42.805,6.029,0.059,-0.048,-0.004,107.0,107.0,102.0,13.3,1505.3,326.2,-0.7,1.8,2470.337,13.32,0.076,129.1
2020-10-16T03:04:03,42.805,6.029,0.053,-0.046,0.011,105.0,106.0,102.0,13.4,1505.2,325.3,-0.8,1.8,2470.358,13.3,0.07,131.0
2020-10-16T03:07:03,42.805,6.029,0.06,-0.022,0.014,106.0,107.0,103.0,13.4,1505.3,327.3,-0.7,1.8,2470.353,13.31,0.063,110.1
2020-10-16T03:10:03,42.805,6.029,0.044,-0.049,0.004,106.0,107.0,102.0,13.4,1505.3,326.1,-0.7,1.8,2470.369,13.31,0.065,138.1
2020-10-16T03:13:03,42.805,6.029,0.055,-0.045,0.007,106.0,106.0,104.0,13.4,1505.3,326.1,-0.7,1.8,2470.324,13.32,0.071,129.3
2020-10-16T03:16:03,42.805,6.029,0.075,-0.024,0.044,107.0,107.0,102.0,13.4,1505.3,323.0,-0.7,1.8,2470.388,13.32,0.078,107.7
2020-10-16T03:19:03,42.805,6.029,0.033,-0.039,0.008,105.0,106.0,103.0,13.4,1505.3,324.4,-0.8,1.8,2470.327,13.32,0.051,139.8
2020-10-16T03:22:03,42.805,6.029,0.059,-0.021,-0.01,107.0,107.0,103.0,13.3,1505.3,327.0,-0.7,1.8,2470.367,13.32,0.062,109.6
2020-10-16T03:25:03,42.805,6.029,0.04,-0.034,0.022,106.0,107.0,103.0,13.4,1505.3,326.5,-0.7,1.9,2470.353,13.32,0.052,130.4
2020-10-16T03:28:03,42.805,6.029,0.05,-0.052,0.013,106.0,107.0,103.0,13.4,1505.3,327.7,-0.7,1.8,2470.391,13.32,0.072,136.1
2020-10-16T03:31:03,42.805,6.029,0.051,-0.029,0.002,106.0,108.0,103.0,13.4,1505.3,323.5,-0.8,1.8,2470.377,13.32,0.058,119.6
2020-10-16T03:34:03,42.805,6.029,0.048,-0.044,0.004,107.0,107.0,103.0,13.4,1505.3,324.2,-0.7,1.8,2470.393,13.32,0.065,132.5
2020-10-16T03:37:03,42.805,6.029,0.054,-0.024,-0.01,108.0,108.0,102.0,13.4,1505.3,325.5,-0.7,1.8,2470.379,13.32,0.059,114.0
2020-10-16T03:40:03,42.805,6.029,0.047,-0.036,0.007,106.0,108.0,103.0,13.4,1505.3,327.7,-0.7,1.8,2470.415,13.32,0.059,127.5
2020-10-16T03:43:03,42.805,6.029,0.053,-0.025,-0.009,108.0,106.0,104.0,13.4,1505.3,325.0,-0.7,1.8,2470.397,13.32,0.058,115.3
2020-10-16T03:46:03,42.805,6.029,0.053,-0.043,-0.006,107.0,106.0,104.0,13.4,1505.3,326.8,-0.7,1.8,2470.382,13.32,0.068,129.1
2020-10-16T03:49:03,42.805,6.029,0.065,-0.052,0.026,107.0,106.0,103.0,13.4,1505.3,325.2,-0.7,1.8,2470.403,13.32,0.083,128.7
2020-10-16T03:52:03,42.805,6.029,0.059,-0.028,-0.012,106.0,107.0,103.0,13.4,1505.3,327.6,-0.7,1.8,2470.407,13.32,0.065,115.4
2020-10-16T03:55:03,42.805,6.029,0.067,-0.043,0.002,107.0,107.0,103.0,13.4,1505.3,328.3,-0.7,1.9,2470.41,13.32,0.079,122.7
2020-10-16T03:58:03,42.805,6.029,0.056,-0.03,0.001,106.0,108.0,104.0,13.4,1505.3,324.0,-0.7,1.8,2470.428,13.32,0.063,118.2
2020-10-16T04:04:03,42.805,6.029,0.033,-0.017,0.022,107.0,108.0,103.0,13.3,1505.2,326.7,-0.7,1.8,2470.455,13.3,0.037,117.3
2020-10-16T04:07:03,42.805,6.029,0.075,-0.02,0.021,107.0,107.0,103.0,13.4,1505.3,326.6,-0.7,1.8,2470.455,13.31,0.077,104.9
2020-10-16T04:10:03,42.805,6.029,0.048,-0.049,-0.004,105.0,107.0,104.0,13.4,1505.3,326.4,-0.7,1.8,2470.451,13.31,0.068,135.6
2020-10-16T04:13:03,42.805,6.029,0.064,-0.041,-0.02,105.0,106.0,102.0,13.3,1505.3,322.8,-0.7,1.8,2470.455,13.32,0.076,122.6
2020-10-16T04:16:03,42.805,6.029,0.036,-0.037,-0.008,106.0,107.0,102.0,13.4,1505.3,325.8,-0.7,1.8,2470.479,13.32,0.051,135.8
2020-10-16T04:19:03,42.805,6.029,0.074,-0.021,-0.004,105.0,108.0,104.0,13.4,1505.3,325.7,-0.7,1.8,2470.465,13.32,0.076,105.8
2020-10-16T04:22:03,42.805,6.029,0.048,-0.039,0.009,106.0,106.0,103.0,13.4,1505.3,324.4,-0.7,1.8,2470.44,13.32,0.061,129.1
2020-10-16T04:25:03,42.805,6.029,0.054,-0.017,-0.003,106.0,107.0,102.0,13.4,1505.3,326.0,-0.7,1.8,2470.489,13.32,0.056,107.5
2020-10-16T04:28:03,42.805,6.029,0.061,-0.031,0.028,106.0,106.0,102.0,13.4,1505.3,326.8,-0.7,1.8,2470.452,13.32,0.068,116.9
2020-10-16T04:31:03,42.805,6.029,0.046,-0.05,0.006,107.0,107.0,103.0,13.4,1505.3,323.7,-0.7,1.8,2470.459,13.32,0.067,137.4
2020-10-16T04:34:03,42.805,6.029,0.036,-0.037,-0.007,106.0,107.0,104.0,13.4,1505.3,323.5,-0.7,1.9,2470.45,13.32,0.051,135.8
2020-10-16T04:37:03,42.805,6.029,0.043,-0.048,0.009,106.0,107.0,104.0,13.3,1505.3,323.1,-0.7,1.9,2470.452,13.32,0.064,138.1
2020-10-16T04:40:03,42.805,6.029,0.051,-0.038,0.004,106.0,107.0,102.0,13.3,1505.3,324.0,-0.7,1.8,2470.441,13.32,0.063,126.7
2020-10-16T04:43:03,42.805,6.029,0.078,-0.051,-0.012,105.0,107.0,103.0,13.4,1505.3,327.1,-0.7,1.8,2470.479,13.32,0.093,123.2
2020-10-16T04:46:03,42.805,6.029,0.082,-0.057,0.011,106.0,107.0,102.0,13.4,1505.3,326.5,-0.7,1.8,2470.456,13.32,0.099,124.8
2020-10-16T04:49:03,42.805,6.029,0.053,-0.045,0.015,106.0,106.0,103.0,13.4,1505.3,326.2,-0.8,1.8,2470.441,13.32,0.069,130.3
2020-10-16T04:52:03,42.805,6.029,0.069,-0.033,-0.024,106.0,107.0,103.0,13.4,1505.3,324.5,-0.7,1.8,2470.469,13.32,0.076,115.6
2020-10-16T04:55:03,42.805,6.029,0.052,-0.024,0.0,107.0,107.0,102.0,13.3,1505.3,324.1,-0.7,1.8,2470.459,13.32,0.057,114.8
2020-10-16T04:58:03,42.805,6.029,0.057,-0.035,0.009,106.0,106.0,101.0,13.4,1505.3,324.9,-0.7,1.8,2470.448,13.32,0.066,121.6
2020-10-16T05:04:03,42.805,6.029,0.065,-0.033,0.014,106.0,106.0,102.0,13.4,1505.2,326.6,-0.7,1.8,2470.524,13.3,0.072,116.9
2020-10-16T05:07:03,42.805,6.029,0.06,-0.025,0.015,106.0,109.0,102.0,13.4,1505.3,323.3,-0.7,1.8,2470.522,13.31,0.064,112.6
2020-10-16T05:10:03,42.805,6.029,0.048,-0.029,0.017,107.0,107.0,103.0,13.3,1505.3,323.0,-0.7,1.8,2470.495,13.31,0.056,121.1
2020-10-16T05:13:03,42.805,6.029,0.059,-0.014,0.0,106.0,106.0,103.0,13.4,1505.3,322.6,-0.7,1.8,2470.486,13.32,0.06,103.3
2020-10-16T05:16:03,42.805,6.029,0.072,-0.03,0.01,105.0,107.0,103.0,13.4,1505.3,324.8,-0.7,1.9,2470.538,13.32,0.077,112.6
2020-10-16T05:19:03,42.805,6.029,0.048,-0.045,0.004,105.0,105.0,102.0,13.3,1505.3,325.4,-0.7,1.8,2470.541,13.32,0.065,133.1
2020-10-16T05:22:03,42.805,6.029,0.068,-0.035,-0.003,106.0,105.0,102.0,13.3,1505.3,327.6,-0.7,1.8,2470.501,13.32,0.076,117.2
2020-10-16T05:25:03,42.805,6.029,0.053,-0.042,0.012,105.0,107.0,102.0,13.4,1505.3,324.4,-0.7,1.8,2470.52,13.32,0.067,128.4
2020-10-16T05:28:03,42.805,6.029,0.044,-0.049,0.01,106.0,106.0,103.0,13.3,1505.3,325.7,-0.7,1.8,2470.493,13.32,0.065,138.1
2020-10-16T05:31:03,42.805,6.029,0.044,-0.038,0.008,105.0,106.0,103.0,13.4,1505.3,327.2,-0.7,1.8,2470.488,13.32,0.058,130.8
2020-10-16T05:34:03,42.805,6.029,0.063,-0.021,0.002,105.0,107.0,102.0,13.4,1505.3,323.3,-0.7,1.8,2470.537,13.32,0.066,108.4
2020-10-16T05:37:03,42.805,6.029,0.068,-0.044,-0.002,104.0,106.0,103.0,13.4,1505.3,324.2,-0.7,1.9,2470.514,13.32,0.08,122.9
2020-10-16T05:40:03,42.805,6.029,0.045,-0.049,0.007,106.0,107.0,102.0,13.4,1505.3,324.1,-0.7,1.8,2470.532,13.32,0.066,137.4
2020-10-16T05:43:03,42.805,6.029,0.064,-0.039,0.003,105.0,105.0,103.0,13.4,1505.3,325.0,-0.7,1.8,2470.537,13.32,0.074,121.4
2020-10-16T05:46:03,42.805,6.029,0.056,-0.017,0.054,105.0,107.0,103.0,13.3,1505.3,328.3,-0.7,1.8,2470.513,13.32,0.058,106.9
2020-10-16T05:49:03,42.805,6.029,0.052,-0.047,0.004,105.0,106.0,102.0,13.4,1505.3,325.0,-0.7,1.8,2470.501,13.32,0.07,132.1
2020-10-16T05:52:03,42.805,6.029,0.052,-0.042,0.008,106.0,106.0,101.0,13.4,1505.3,327.1,-0.7,1.8,2470.498,13.32,0.066,128.9
2020-10-16T05:55:03,42.805,6.029,0.061,-0.021,0.02,106.0,107.0,102.0,13.4,1505.3,326.6,-0.7,1.9,2470.543,13.32,0.064,109.0
2020-10-16T05:58:03,42.805,6.029,0.063,-0.023,-0.017,105.0,106.0,103.0,13.4,1505.3,327.8,-0.7,1.8,2470.513,13.32,0.067,110.1
2020-10-16T06:04:03,42.805,6.029,0.065,-0.033,0.006,106.0,106.0,101.0,13.3,1505.2,326.9,-0.7,1.8,2470.554,13.3,0.072,116.9
2020-10-16T06:07:03,42.805,6.029,0.043,-0.036,-0.011,105.0,106.0,102.0,13.4,1505.3,323.4,-0.7,1.8,2470.565,13.31,0.056,129.9
2020-10-16T06:10:03,42.805,6.029,0.02,-0.027,-0.003,106.0,105.0,103.0,13.3,1505.3,326.7,-0.7,1.8,2470.567,13.31,0.033,143.5
2020-10-16T06:13:03,42.805,6.029,0.079,-0.024,0.023,105.0,105.0,103.0,13.4,1505.3,324.8,-0.7,1.8,2470.512,13.32,0.082,106.9
2020-10-16T06:16:03,42.805,6.029,0.059,-0.071,-0.013,105.0,107.0,103.0,13.3,1505.3,327.9,-0.7,1.8,2470.554,13.32,0.092,140.3
2020-10-16T06:19:03,42.805,6.029,0.057,-0.047,-0.007,107.0,106.0,101.0,13.3,1505.3,323.0,-0.7,1.8,2470.533,13.32,0.073,129.5
2020-10-16T06:22:03,42.805,6.029,0.056,-0.03,0.008,106.0,106.0,102.0,13.4,1505.3,326.1,-0.7,1.8,2470.579,13.32,0.063,118.2
2020-10-16T06:25:03,42.805,6.029,0.069,-0.035,0.022,106.0,106.0,103.0,13.4,1505.3,326.5,-0.7,1.8,2470.521,13.32,0.077,116.9
2020-10-16T06:28:03,42.805,6.029,0.052,-0.023,0.002,106.0,106.0,102.0,13.4,1505.3,322.8,-0.7,1.9,2470.518,13.32,0.056,113.9
2020-10-16T06:31:03,42.805,6.029,0.064,-0.021,-0.016,104.0,106.0,102.0,13.3,1505.3,326.0,-0.7,1.8,2470.536,13.32,0.067,108.2
2020-10-16T06:34:03,42.805,6.029,0.073,-0.036,0.019,105.0,107.0,102.0,13.4,1505.3,326.4,-0.7,1.8,2470.535,13.32,0.081,116.2
2020-10-16T06:37:03,42.805,6.029,0.074,-0.043,0.019,105.0,107.0,103.0,13.3,1505.3,325.4,-0.7,1.8,2470.523,13.32,0.085,120.2
2020-10-16T06:40:03,42.805,6.029,0.047,-0.049,0.011,106.0,106.0,102.0,13.4,1505.3,325.2,-0.7,1.8,2470.523,13.32,0.067,136.2
2020-10-16T06:43:03,42.805,6.029,0.071,-0.038,0.035,107.0,106.0,102.0,13.3,1505.3,325.5,-0.7,1.8,2470.546,13.32,0.08,118.2
2020-10-16T06:46:03,42.805,6.029,0.053,-0.026,-0.01,105.0,106.0,103.0,13.4,1505.3,322.9,-0.7,1.8,2470.546,13.32,0.059,116.1
2020-10-16T06:49:03,42.805,6.029,0.065,-0.021,0.008,106.0,107.0,103.0,13.3,1505.3,322.8,-0.7,1.8,2470.529,13.32,0.068,107.9
2020-10-16T06:52:03,42.805,6.029,0.032,-0.036,0.006,105.0,105.0,102.0,13.3,1505.3,328.3,-0.6,1.8,2470.552,13.32,0.048,138.4
2020-10-16T06:55:03,42.805,6.029,0.031,-0.03,-0.006,106.0,106.0,102.0,13.4,1505.3,324.8,-0.7,1.8,2470.496,13.32,0.043,134.1
2020-10-16T06:58:03,42.805,6.029,0.047,-0.026,-0.018,106.0,106.0,102.0,13.4,1505.3,322.9,-0.7,1.8,2470.553,13.32,0.053,118.9
2020-10-16T07:04:03,42.805,6.029,0.054,-0.052,-0.019,106.0,106.0,102.0,13.4,1505.2,328.1,-0.7,1.8,2470.577,13.3,0.074,133.9
2020-10-16T07:10:03,42.805,6.029,0.054,-0.036,0.0,106.0,106.0,102.0,13.4,1505.2,328.2,-0.7,1.8,2470.592,13.29,0.064,123.7
2020-10-16T07:13:03,42.805,6.029,0.063,-0.021,0.022,105.0,106.0,102.0,13.4,1505.3,326.3,-0.7,1.8,2470.579,13.31,0.066,108.4
2020-10-16T07:16:03,42.805,6.029,0.048,-0.045,-0.002,107.0,106.0,103.0,13.4,1505.3,327.3,-0.7,1.8,2470.583,13.31,0.065,133.1
2020-10-16T07:19:03,42.805,6.029,0.078,-0.034,0.01,105.0,107.0,103.0,13.3,1505.3,323.7,-0.7,1.8,2470.603,13.31,0.085,113.5
2020-10-16T07:22:03,42.805,6.029,0.059,-0.037,0.009,107.0,107.0,103.0,13.3,1505.3,325.4,-0.7,1.8,2470.565,13.32,0.069,122.1
2020-10-16T07:25:03,42.805,6.029,0.05,-0.028,0.025,106.0,107.0,101.0,13.4,1505.3,323.3,-0.7,1.8,2470.571,13.32,0.057,119.3
2020-10-16T07:28:03,42.805,6.029,0.067,-0.047,0.016,106.0,107.0,102.0,13.4,1505.3,324.3,-0.7,1.9,2470.499,13.32,0.081,125.1
2020-10-16T07:31:03,42.805,6.029,0.048,-0.046,0.021,107.0,106.0,103.0,13.4,1505.3,327.4,-0.7,1.8,2470.569,13.32,0.066,133.8
2020-10-16T07:34:03,42.805,6.029,0.043,-0.052,-0.004,108.0,107.0,103.0,13.3,1505.3,325.3,-0.7,1.9,2470.555,13.32,0.067,140.4
2020-10-16T07:37:03,42.805,6.029,0.046,-0.027,-0.004,105.0,107.0,103.0,13.3,1505.3,326.3,-0.7,1.9,2470.545,13.32,0.053,120.4
2020-10-16T07:40:03,42.805,6.029,0.056,-0.042,0.001,106.0,107.0,102.0,13.3,1505.3,326.5,-0.7,1.9,2470.562,13.32,0.069,126.9
2020-10-16T07:43:03,42.805,6.029,0.061,-0.05,0.029,105.0,106.0,103.0,13.3,1505.3,325.1,-0.7,1.8,2470.484,13.32,0.078,129.3
2020-10-16T07:46:03,42.805,6.029,0.06,-0.02,0.038,108.0,105.0,104.0,13.4,1505.3,326.1,-0.7,1.8,2470.498,13.32,0.063,108.4
2020-10-16T07:49:03,42.805,6.029,0.05,-0.023,-0.016,106.0,107.0,103.0,13.4,1505.3,325.1,-0.7,1.8,2470.564,13.32,0.055,114.7
2020-10-16T07:52:03,42.805,6.029,0.051,-0.038,0.014,107.0,107.0,103.0,13.4,1505.3,325.2,-0.7,1.8,2470.504,13.32,0.063,126.7
2020-10-16T07:55:03,42.805,6.029,0.078,-0.053,0.008,106.0,106.0,103.0,13.4,1505.3,324.7,-0.7,1.8,2470.534,13.32,0.094,124.2
2020-10-16T07:58:03,42.805,6.029,0.037,-0.022,0.0,106.0,107.0,103.0,13.3,1505.3,327.1,-0.7,1.8,2470.477,13.32,0.043,120.7
2020-10-16T08:04:03,42.805,6.029,0.057,-0.037,-0.032,107.0,108.0,104.0,13.4,1505.2,324.5,-0.8,1.8,2470.584,13.3,0.067,123.0
2020-10-16T08:07:03,42.805,6.029,0.033,-0.031,0.001,106.0,108.0,103.0,13.3,1505.3,326.4,-0.7,1.8,2470.554,13.31,0.045,133.2
2020-10-16T08:10:03,42.805,6.029,0.052,-0.018,0.0,106.0,108.0,103.0,13.4,1505.3,324.6,-0.7,1.8,2470.568,13.31,0.055,109.1
2020-10-16T08:13:03,42.805,6.029,0.027,-0.057,-0.002,106.0,107.0,103.0,13.4,1505.3,326.4,-0.7,1.8,2470.554,13.32,0.063,154.7
2020-10-16T08:16:03,42.805,6.029,0.04,-0.02,0.006,107.0,107.0,104.0,13.3,1505.3,328.4,-0.7,1.8,2470.528,13.32,0.044,116.6
2020-10-16T08:19:03,42.805,6.029,0.06,-0.031,-0.012,106.0,107.0,103.0,13.3,1505.3,326.7,-0.7,1.8,2470.533,13.32,0.067,117.3
2020-10-16T08:22:03,42.805,6.029,0.063,-0.002,0.005,107.0,108.0,103.0,13.4,1505.3,323.3,-0.7,1.8,2470.51,13.32,0.063,91.8
2020-10-16T08:25:03,42.805,6.029,0.057,-0.038,0.022,106.0,107.0,103.0,13.4,1505.3,327.7,-0.7,1.8,2470.519,13.32,0.068,123.7
2020-10-16T08:28:03,42.805,6.029,0.057,-0.026,0.017,108.0,107.0,103.0,13.4,1505.3,325.6,-0.7,1.9,2470.458,13.32,0.062,114.5
2020-10-16T08:31:03,42.805,6.029,0.045,-0.039,0.001,106.0,107.0,104.0,13.4,1505.3,323.5,-0.7,1.8,2470.505,13.32,0.059,130.9
2020-10-16T08:34:03,42.805,6.029,0.055,-0.043,0.012,109.0,106.0,103.0,13.4,1505.3,324.5,-0.7,1.8,2470.498,13.32,0.069,128.0
2020-10-16T08:37:03,42.805,6.029,0.061,-0.028,0.011,107.0,106.0,104.0,13.4,1505.3,326.2,-0.7,1.8,2470.47,13.32,0.067,114.7
2020-10-16T08:40:03,42.805,6.029,0.047,-0.044,0.005,108.0,107.0,102.0,13.4,1505.3,326.0,-0.6,1.8,2470.498,13.32,0.064,133.1
2020-10-16T08:43:03,42.805,6.029,0.05,-0.051,-0.003,106.0,108.0,104.0,13.4,1505.3,326.0,-0.7,1.9,2470.507,13.32,0.071,135.6
2020-10-16T08:46:03,42.805,6.029,0.054,-0.031,0.013,108.0,105.0,102.0,13.3,1505.3,323.3,-0.7,1.8,2470.475,13.32,0.062,119.9
2020-10-16T08:49:03,42.805,6.029,0.062,-0.044,0.025,107.0,107.0,104.0,13.3,1505.3,323.5,-0.7,1.8,2470.537,13.32,0.076,125.4
2020-10-16T08:52:03,42.805,6.029,0.061,-0.049,0.005,107.0,107.0,102.0,13.4,1505.3,324.3,-0.7,1.8,2470.468,13.32,0.078,128.8
2020-10-16T08:55:03,42.805,6.029,0.056,-0.035,0.033,106.0,106.0,103.0,13.4,1505.3,324.7,-0.7,1.8,2470.524,13.32,0.066,122.0
2020-10-16T08:58:03,42.805,6.029,0.059,-0.022,-0.01,107.0,106.0,103.0,13.4,1505.3,323.0,-0.7,1.8,2470.459,13.32,0.062,110.4
2020-10-16T09:04:03,42.805,6.029,0.045,-0.045,-0.013,107.0,106.0,104.0,13.4,1505.2,328.2,-0.7,1.8,2470.518,13.3,0.063,135.0
2020-10-16T09:07:03,42.805,6.029,0.042,-0.036,-0.006,106.0,107.0,103.0,13.4,1505.3,327.0,-0.7,1.8,2470.493,13.31,0.055,130.6
2020-10-16T09:10:03,42.805,6.029,0.053,-0.028,0.017,106.0,106.0,103.0,13.4,1505.3,328.0,-0.7,1.8,2470.487,13.31,0.059,117.9
2020-10-16T09:13:03,42.805,6.029,0.073,-0.042,0.017,107.0,106.0,103.0,13.3,1505.3,323.2,-0.7,1.8,2470.471,13.32,0.084,119.9
2020-10-16T09:16:03,42.805,6.029,0.079,-0.025,0.028,107.0,107.0,103.0,13.4,1505.3,327.0,-0.7,1.9,2470.486,13.32,0.082,107.6
2020-10-16T09:19:03,42.805,6.029,0.046,-0.038,0.022,105.0,106.0,103.0,13.4,1505.3,325.0,-0.7,1.8,2470.491,13.32,0.059,129.6
2020-10-16T09:22:03,42.805,6.029,0.032,-0.039,-0.012,107.0,108.0,104.0,13.4,1505.3,325.4,-0.7,1.8,2470.444,13.32,0.05,140.6
2020-10-16T09:25:03,42.805,6.029,0.059,-0.044,-0.003,106.0,106.0,103.0,13.4,1505.3,328.8,-0.7,1.8,2470.448,13.32,0.073,126.7
2020-10-16T09:28:03,42.805,6.029,0.063,-0.035,-0.005,107.0,107.0,102.0,13.4,1505.3,324.0,-0.7,1.8,2470.492,13.32,0.072,119.1
2020-10-16T09:31:03,42.805,6.029,0.046,-0.028,0.011,107.0,107.0,104.0,13.4,1505.3,324.7,-0.7,1.9,2470.443,13.32,0.053,121.3
2020-10-16T09:37:03,42.805,6.029,0.043,-0.04,-0.011,106.0,107.0,103.0,13.3,1505.2,323.4,-0.7,1.8,2470.506,13.3,0.058,132.9
2020-10-16T09:40:03,42.805,6.029,0.065,-0.043,0.01,106.0,106.0,105.0,13.4,1505.3,326.8,-0.7,1.8,2470.508,13.31,0.077,123.5
2020-10-16T09:46:03,42.805,6.029,0.052,-0.043,0.023,107.0,107.0,104.0,13.4,1505.2,328.6,-0.7,1.8,2470.54,13.3,0.067,129.6
2020-10-16T09:49:03,42.805,6.029,0.048,-0.032,0.013,107.0,107.0,103.0,13.3,1505.3,324.8,-0.7,1.8,2470.514,13.31,0.057,123.7
2020-10-16T09:52:03,42.805,6.029,0.057,-0.063,0.0,105.0,106.0,103.0,13.4,1505.3,322.9,-0.7,1.8,2470.495,13.31,0.084,137.9
2020-10-16T09:55:03,42.805,6.029,0.077,-0.027,0.016,106.0,107.0,103.0,13.4,1505.3,323.8,-0.7,1.8,2470.461,13.32,0.081,109.3
2020-10-16T09:58:03,42.805,6.029,0.058,-0.054,-0.017,107.0,106.0,103.0,13.4,1505.3,328.4,-0.7,1.8,2470.467,13.32,0.079,133.0
2020-10-16T10:04:03,42.805,6.029,0.043,-0.042,0.01,108.0,107.0,104.0,13.4,1505.2,325.7,-0.8,1.8,2470.481,13.3,0.06,134.3
2020-10-16T10:07:03,42.805,6.029,0.051,-0.046,0.006,106.0,106.0,103.0,13.4,1505.3,324.5,-0.7,1.8,2470.484,13.31,0.068,132.0
2020-10-16T10:10:03,42.805,6.029,0.087,-0.041,0.046,106.0,106.0,103.0,13.4,1505.3,325.7,-0.7,1.8,2470.494,13.31,0.096,115.2